User: anonymous   Login
Location: Lac de la Montange Noire
(46.1952°N, 74.2701°W)
Time: 15:28:17
(UTC-04:00)
Language:

Iridium 42 - Orbit

View from above orbital plane
View from above orbital plane
View from above satellite
View from above satellite

Ground track
Ground track

The orbit data is extracted from the following two-line orbital elements,

1 25077U 97077A   17264.24015806  .00000121  00000-0  35849-4 0  9994
2 25077  86.4005 341.7497 0002026  81.1728 278.9697 14.34501755 35964
Epoch (UTC): 21 September 2017 05:45:49
Eccentricity: 0.0002026
inclination: 86.4005°
perigee height: 775 km
apogee height: 778 km
right ascension of ascending node: 341.7497°
argument of perigee: 81.1728°
revolutions per day: 14.34501755
mean anomaly at epoch: 278.9697°
orbit number at epoch: 3596

The dashed part of the orbit path shows where the satellite is in the earth's shadow,  

DLR